Regional Weather Roundup
Issued by NWS Cleveland, OH

Home | Current Version | Previous Version | Graphics & Text | Print | Product List | Glossary On
Versions: 1 2 3 4 5 6 7 8 9 10 11 12 13 14 15 16 17 18 19 20 21 22 23 24 25 26 27 28 29 30 31 32 33 34 35 36 37 38 39 40 41 42 43 44 45 46 47 48 49 50
000
ASUS41 KCLE 240510
RWRCLE
OHIO REGIONAL WEATHER ROUNDUP
NATIONAL WEATHER SERVICE CLEVELAND, OH
100 AM EDT THU AUG 24 2017

NOTE: "FAIR" INDICATES FEW OR NO CLOUDS BELOW 12,000 FEET WITH NO
SIGNIFICANT WEATHER AND/OR OBSTRUCTIONS TO VISIBILITY.

OHZ001>008-015>018-024>027-034-035-043-044-240600-
   NORTHWEST OHIO

CITY           SKY/WX    TMP DP  RH WIND       PRES   REMARKS
DEFIANCE       CLEAR     56  49  77 NW6       30.03R
FINDLAY        CLEAR     57  50  77 W6        30.00S
TOLEDO EXPRESS CLEAR     59  53  80 NW6       30.00R
TOLEDO EXEC    CLEAR     59  53  80 NW6       30.00R
LIMA           CLEAR     57  52  83 NW6       30.02S
$$

OHZ009>014-019>023-028>033-038-089-240600-
   NORTHEAST OHIO

CITY           SKY/WX    TMP DP  RH WIND       PRES   REMARKS
CLE-HOPKINS    MOCLDY    65  57  75 CALM      29.99R
CLE-LAKEFRONT  PTCLDY    68  56  65 E5        29.96R
CUY CO. ARPT   NOT AVBL
LORAIN-ELYRIA  PTCLDY    60  54  80 CALM      29.98R
ASHTABULA      MOCLDY    57  56  96 CALM      29.99R
AKRON-CANTON   PTCLDY    63  54  72 SW3       29.98S
WOOSTER        CLEAR     54  53  97 CALM      29.99S
MANSFIELD      CLEAR     60  53  77 W6        30.00S
YOUNGSTOWN     PTCLDY    55  54  96 CALM      29.98R
$$

OHZ042-051>053-060>062-070>072-077>081-240600-
  SOUTHWEST OHIO

CITY           SKY/WX    TMP DP  RH WIND       PRES   REMARKS
CINC-COVINGTON CLEAR     64  55  72 NW5       30.02S
CINC-LUNKEN    CLEAR     59  58  96 NE3       30.03R
HAMILTON       CLEAR     57  56  96 CALM      30.03S
DAYTON         CLEAR     60  52  74 NW7       30.04R
WRIGHT-PAT AFB CLEAR     64  53  68 N6        30.03R
DAYTON GENERAL CLEAR     65  51  60 N8        30.02S
WILMINGTON     CLEAR     63  54  72 NW6       30.02S
$$

OHZ036-037-039>041-045>050-054>059-063>069-073>076-082>088-240600-
  CENTRAL AND SOUTHEAST OHIO

CITY           SKY/WX    TMP DP  RH WIND       PRES   REMARKS
COLUMBUS       PTCLDY    64  56  75 CALM      30.00R
OSU AIRPORT    CLEAR     62  55  77 NW7       30.01R
BOLTON FIELD   CLEAR     60  55  83 NW6       30.02R
RICKENBACK AFB PTCLDY    59  56  92 CALM      30.00R
NEWARK         PTCLDY    58  57  97 CALM      30.00R
MARION         CLEAR     59  51  75 W6        30.01S
LANCASTER      PTCLDY    56  55  97 CALM      30.01R
ZANESVILLE     CLEAR     58  56  93 CALM      30.00R
NEW PHILLY     NOT AVBL
$$




USA.gov is the U.S. government's official web portal to all federal, state and local government web resources and services.